Year,Month,Day,Hour,Minute,Value (Times are PST for temperature in C)
2014,08,07,00,00,16.20
2014,08,07,00,01,16.20
2014,08,07,00,02,16.20
2014,08,07,00,03,16.20
2014,08,07,00,04,16.20
2014,08,07,00,05,16.20
2014,08,07,00,06,16.20
2014,08,07,00,07,16.10
2014,08,07,00,08,16.10
2014,08,07,00,09,16.10
2014,08,07,00,10,16.10
2014,08,07,00,11,16.00
2014,08,07,00,12,16.00
2014,08,07,00,13,16.00
2014,08,07,00,14,15.90
2014,08,07,00,15,15.90
2014,08,07,00,16,15.90
2014,08,07,00,17,15.90
2014,08,07,00,18,15.90
2014,08,07,00,19,16.00
2014,08,07,00,20,16.00
2014,08,07,00,21,16.00
2014,08,07,00,22,16.10
2014,08,07,00,23,16.10
2014,08,07,00,24,16.10
2014,08,07,00,25,16.10
2014,08,07,00,26,16.00
2014,08,07,00,27,16.00
2014,08,07,00,28,16.00
2014,08,07,00,29,15.90
2014,08,07,00,30,15.90
2014,08,07,00,31,15.90
2014,08,07,00,32,15.90
2014,08,07,00,33,15.90
2014,08,07,00,34,15.90
2014,08,07,00,35,15.90
2014,08,07,00,36,15.80
2014,08,07,00,37,15.80
2014,08,07,00,38,15.90
2014,08,07,00,39,15.90
2014,08,07,00,40,15.90
2014,08,07,00,41,15.90
2014,08,07,00,42,15.90
2014,08,07,00,43,15.90
2014,08,07,00,44,15.90
2014,08,07,00,45,15.90
2014,08,07,00,46,15.90
2014,08,07,00,47,15.80
2014,08,07,00,48,15.80
2014,08,07,00,49,15.80
2014,08,07,00,50,15.80
2014,08,07,00,51,15.80
2014,08,07,00,52,15.80
2014,08,07,00,53,15.80
2014,08,07,00,54,15.80
2014,08,07,00,55,15.80
2014,08,07,00,56,15.80
2014,08,07,00,57,15.80
2014,08,07,00,58,15.80
2014,08,07,00,59,15.80
2014,08,07,01,00,15.80
2014,08,07,01,01,15.80
2014,08,07,01,02,15.80
2014,08,07,01,03,15.80
2014,08,07,01,04,15.80
2014,08,07,01,05,15.70
2014,08,07,01,06,15.70
2014,08,07,01,07,15.70
2014,08,07,01,08,15.70
2014,08,07,01,09,15.70
2014,08,07,01,10,15.60
2014,08,07,01,11,15.60
2014,08,07,01,12,15.60
2014,08,07,01,13,15.60
2014,08,07,01,14,15.50
2014,08,07,01,15,15.50
2014,08,07,01,16,15.50
2014,08,07,01,17,15.40
2014,08,07,01,18,15.40
2014,08,07,01,19,15.30
2014,08,07,01,20,15.30
2014,08,07,01,21,15.30
2014,08,07,01,22,15.30
2014,08,07,01,23,15.30
2014,08,07,01,24,15.30
2014,08,07,01,25,15.30
2014,08,07,01,26,15.30
2014,08,07,01,27,15.30
2014,08,07,01,28,15.30
2014,08,07,01,29,15.20
2014,08,07,01,30,15.20
2014,08,07,01,31,15.20
2014,08,07,01,32,15.20
2014,08,07,01,33,15.20
2014,08,07,01,34,15.20
2014,08,07,01,35,15.20
2014,08,07,01,36,15.20
2014,08,07,01,37,15.20
2014,08,07,01,38,15.20
2014,08,07,01,39,15.20
2014,08,07,01,40,15.20
2014,08,07,01,41,15.20
2014,08,07,01,42,15.10
2014,08,07,01,43,15.10
2014,08,07,01,44,15.10
2014,08,07,01,45,15.10
2014,08,07,01,46,15.10
2014,08,07,01,47,15.10
2014,08,07,01,48,15.10
2014,08,07,01,49,15.00
2014,08,07,01,50,15.00
2014,08,07,01,51,15.00
2014,08,07,01,52,15.00
2014,08,07,01,53,15.00
2014,08,07,01,54,15.00
2014,08,07,01,55,14.90
2014,08,07,01,56,15.00
2014,08,07,01,57,14.90
2014,08,07,01,58,14.90
2014,08,07,01,59,14.90
2014,08,07,02,00,14.90
2014,08,07,02,01,14.90
2014,08,07,02,02,14.90
2014,08,07,02,03,14.90
2014,08,07,02,04,14.90
2014,08,07,02,05,14.90
2014,08,07,02,06,14.90
2014,08,07,02,07,14.80
2014,08,07,02,08,14.80
2014,08,07,02,09,14.80
2014,08,07,02,10,14.80
2014,08,07,02,11,14.80
2014,08,07,02,12,14.80
2014,08,07,02,13,14.70
2014,08,07,02,14,14.70
2014,08,07,02,15,14.70
2014,08,07,02,16,14.70
2014,08,07,02,17,14.70
2014,08,07,02,18,14.70
2014,08,07,02,19,14.70
2014,08,07,02,20,14.70
2014,08,07,02,21,14.70
2014,08,07,02,22,14.70
2014,08,07,02,23,14.70
2014,08,07,02,24,14.70
2014,08,07,02,25,14.60
2014,08,07,02,26,14.60
2014,08,07,02,27,14.60
2014,08,07,02,28,14.60
2014,08,07,02,29,14.60
2014,08,07,02,30,14.60
2014,08,07,02,31,14.60
2014,08,07,02,32,14.60
2014,08,07,02,33,14.60
2014,08,07,02,34,14.60
2014,08,07,02,35,14.50
2014,08,07,02,36,14.50
2014,08,07,02,37,14.40
2014,08,07,02,38,14.40
2014,08,07,02,39,14.40
2014,08,07,02,40,14.40
2014,08,07,02,41,14.40
2014,08,07,02,42,14.40
2014,08,07,02,43,14.40
2014,08,07,02,44,14.40
2014,08,07,02,45,14.40
2014,08,07,02,46,14.30
2014,08,07,02,47,14.30
2014,08,07,02,48,14.30
2014,08,07,02,49,14.30
2014,08,07,02,50,14.30
2014,08,07,02,51,14.30
2014,08,07,02,52,14.30
2014,08,07,02,53,14.30
2014,08,07,02,54,14.30
2014,08,07,02,55,14.30
2014,08,07,02,56,14.20
2014,08,07,02,57,14.20
2014,08,07,02,58,14.20
2014,08,07,02,59,14.20
2014,08,07,03,00,14.20
2014,08,07,03,01,14.20
2014,08,07,03,02,14.20
2014,08,07,03,03,14.20
2014,08,07,03,04,14.20
2014,08,07,03,05,14.20
2014,08,07,03,06,14.20
2014,08,07,03,07,14.20
2014,08,07,03,08,14.20
2014,08,07,03,09,14.20
2014,08,07,03,10,14.20
2014,08,07,03,11,14.20
2014,08,07,03,12,14.20
2014,08,07,03,13,14.20
2014,08,07,03,14,14.20
2014,08,07,03,15,14.20
2014,08,07,03,16,14.20
2014,08,07,03,17,14.20
2014,08,07,03,18,14.20
2014,08,07,03,19,14.20
2014,08,07,03,20,14.10
2014,08,07,03,21,14.10
2014,08,07,03,22,14.10
2014,08,07,03,23,14.10
2014,08,07,03,24,14.10
2014,08,07,03,25,14.10
2014,08,07,03,26,14.10
2014,08,07,03,27,14.10
2014,08,07,03,28,14.10
2014,08,07,03,29,14.10
2014,08,07,03,30,14.10
2014,08,07,03,31,14.20
2014,08,07,03,32,14.20
2014,08,07,03,33,14.20
2014,08,07,03,34,14.20
2014,08,07,03,35,14.10
2014,08,07,03,36,14.10
2014,08,07,03,37,14.10
2014,08,07,03,38,14.10
2014,08,07,03,39,14.00
2014,08,07,03,40,14.00
2014,08,07,03,41,14.10
2014,08,07,03,42,14.10
2014,08,07,03,43,14.10
2014,08,07,03,44,14.00
2014,08,07,03,45,14.10
2014,08,07,03,46,14.10
2014,08,07,03,47,14.10
2014,08,07,03,48,14.10
2014,08,07,03,49,14.10
2014,08,07,03,50,14.10
2014,08,07,03,51,14.00
2014,08,07,03,52,14.00
2014,08,07,03,53,14.00
2014,08,07,03,54,14.00
2014,08,07,03,55,14.00
2014,08,07,03,56,14.00
2014,08,07,03,57,13.90
2014,08,07,03,58,13.90
2014,08,07,03,59,13.90
2014,08,07,04,00,13.90
2014,08,07,04,01,13.90
2014,08,07,04,02,13.90
2014,08,07,04,03,13.80
2014,08,07,04,04,13.80
2014,08,07,04,05,13.80
2014,08,07,04,06,13.80
2014,08,07,04,07,13.80
2014,08,07,04,08,13.80
2014,08,07,04,09,13.80
2014,08,07,04,10,13.80
2014,08,07,04,11,13.70
2014,08,07,04,12,13.70
2014,08,07,04,13,13.70
2014,08,07,04,14,13.70
2014,08,07,04,15,13.70
2014,08,07,04,16,13.70
2014,08,07,04,17,13.70
2014,08,07,04,18,13.70
2014,08,07,04,19,13.70
2014,08,07,04,20,13.70
2014,08,07,04,21,13.70
2014,08,07,04,22,13.70
2014,08,07,04,23,13.70
2014,08,07,04,24,13.60
2014,08,07,04,25,13.60
2014,08,07,04,26,13.60
2014,08,07,04,27,13.60
2014,08,07,04,28,13.50
2014,08,07,04,29,13.40
2014,08,07,04,30,13.40
2014,08,07,04,31,13.30
2014,08,07,04,32,13.30
2014,08,07,04,33,13.30
2014,08,07,04,34,13.20
2014,08,07,04,35,13.20
2014,08,07,04,36,13.10
2014,08,07,04,37,13.10
2014,08,07,04,38,13.00
2014,08,07,04,39,13.00
2014,08,07,04,40,13.00
2014,08,07,04,41,12.90
2014,08,07,04,42,12.90
2014,08,07,04,43,12.90
2014,08,07,04,44,12.90
2014,08,07,04,45,12.90
2014,08,07,04,46,12.90
2014,08,07,04,47,12.90
2014,08,07,04,48,12.90
2014,08,07,04,49,12.90
2014,08,07,04,50,12.90
2014,08,07,04,51,13.00
2014,08,07,04,52,13.00
2014,08,07,04,53,13.00
2014,08,07,04,54,13.00
2014,08,07,04,55,13.00
2014,08,07,04,56,13.10
2014,08,07,04,57,13.10
2014,08,07,04,58,13.10
2014,08,07,04,59,13.10
2014,08,07,05,00,13.10
2014,08,07,05,01,13.10
2014,08,07,05,02,13.10
2014,08,07,05,03,13.20
2014,08,07,05,04,13.20
2014,08,07,05,05,13.30
2014,08,07,05,06,13.30
2014,08,07,05,07,13.30
2014,08,07,05,08,13.30
2014,08,07,05,09,13.30
2014,08,07,05,10,13.30
2014,08,07,05,11,13.30
2014,08,07,05,12,13.30
2014,08,07,05,13,13.20
2014,08,07,05,14,13.20
2014,08,07,05,15,13.20
2014,08,07,05,16,13.20
2014,08,07,05,17,13.30
2014,08,07,05,18,13.30
2014,08,07,05,19,13.30
2014,08,07,05,20,13.30
2014,08,07,05,21,13.30
2014,08,07,05,22,13.30
2014,08,07,05,23,13.30
2014,08,07,05,24,13.30
2014,08,07,05,25,13.20
2014,08,07,05,26,13.20
2014,08,07,05,27,13.20
2014,08,07,05,28,13.20
2014,08,07,05,29,13.10
2014,08,07,05,30,13.10
2014,08,07,05,31,13.10
2014,08,07,05,32,13.10
2014,08,07,05,33,13.10
2014,08,07,05,34,13.00
2014,08,07,05,35,13.00
2014,08,07,05,36,13.00
2014,08,07,05,37,13.00
2014,08,07,05,38,13.00
2014,08,07,05,39,13.00
2014,08,07,05,40,13.00
2014,08,07,05,41,13.00
2014,08,07,05,42,13.00
2014,08,07,05,43,13.00
2014,08,07,05,44,13.00
2014,08,07,05,45,13.00
2014,08,07,05,46,13.00
2014,08,07,05,47,13.00
2014,08,07,05,48,13.00
2014,08,07,05,49,13.00
2014,08,07,05,50,13.00
2014,08,07,05,51,13.00
2014,08,07,05,52,13.00
2014,08,07,05,53,13.10
2014,08,07,05,54,13.10
2014,08,07,05,55,13.10
2014,08,07,05,56,13.10
2014,08,07,05,57,13.10
2014,08,07,05,58,13.10
2014,08,07,05,59,13.10
2014,08,07,06,00,13.10
2014,08,07,06,01,13.10
2014,08,07,06,02,13.10
2014,08,07,06,03,13.10
2014,08,07,06,04,13.00
2014,08,07,06,05,13.00
2014,08,07,06,06,13.00
2014,08,07,06,07,12.90
2014,08,07,06,08,12.90
2014,08,07,06,09,12.90
2014,08,07,06,10,12.90
2014,08,07,06,11,12.90
2014,08,07,06,12,12.90
2014,08,07,06,13,13.00
2014,08,07,06,14,13.00
2014,08,07,06,15,13.00
2014,08,07,06,16,13.00
2014,08,07,06,17,13.00
2014,08,07,06,18,13.00
2014,08,07,06,19,13.10
2014,08,07,06,20,13.00
2014,08,07,06,21,13.10
2014,08,07,06,22,13.10
2014,08,07,06,23,13.10
2014,08,07,06,24,13.10
2014,08,07,06,25,13.10
2014,08,07,06,26,13.10
2014,08,07,06,27,13.10
2014,08,07,06,28,13.10
2014,08,07,06,29,13.10
2014,08,07,06,30,13.10
2014,08,07,06,31,13.10
2014,08,07,06,32,13.10
2014,08,07,06,33,13.10
2014,08,07,06,34,13.10
2014,08,07,06,35,13.10
2014,08,07,06,36,13.10
2014,08,07,06,37,13.10
2014,08,07,06,38,13.10
2014,08,07,06,39,13.10
2014,08,07,06,40,13.20
2014,08,07,06,41,13.20
2014,08,07,06,42,13.20
2014,08,07,06,43,13.20
2014,08,07,06,44,13.30
2014,08,07,06,45,13.30
2014,08,07,06,46,13.40
2014,08,07,06,47,13.40
2014,08,07,06,48,13.40
2014,08,07,06,49,13.40
2014,08,07,06,50,13.40
2014,08,07,06,51,13.40
2014,08,07,06,52,13.40
2014,08,07,06,53,13.40
2014,08,07,06,54,13.40
2014,08,07,06,55,13.50
2014,08,07,06,56,13.50
2014,08,07,06,57,13.50
2014,08,07,06,58,13.60
2014,08,07,06,59,13.60
2014,08,07,07,00,13.60
2014,08,07,07,01,13.60
2014,08,07,07,02,13.60
2014,08,07,07,03,13.60
2014,08,07,07,04,13.60
2014,08,07,07,05,13.70
2014,08,07,07,06,13.70
2014,08,07,07,07,13.70
2014,08,07,07,08,13.70
2014,08,07,07,09,13.80
2014,08,07,07,10,13.80
2014,08,07,07,11,13.80
2014,08,07,07,12,13.90
2014,08,07,07,13,13.90
2014,08,07,07,14,14.00
2014,08,07,07,15,14.00
2014,08,07,07,16,14.00
2014,08,07,07,17,14.10
2014,08,07,07,18,14.10
2014,08,07,07,19,14.10
2014,08,07,07,20,14.10
2014,08,07,07,21,14.10
2014,08,07,07,22,14.10
2014,08,07,07,23,14.10
2014,08,07,07,24,14.10
2014,08,07,07,25,14.10
2014,08,07,07,26,14.10
2014,08,07,07,27,14.10
2014,08,07,07,28,14.10
2014,08,07,07,29,14.10
2014,08,07,07,30,14.20
2014,08,07,07,31,14.20
2014,08,07,07,32,14.20
2014,08,07,07,33,14.20
2014,08,07,07,34,14.20
2014,08,07,07,35,14.30
2014,08,07,07,36,14.30
2014,08,07,07,37,14.40
2014,08,07,07,38,14.40
2014,08,07,07,39,14.50
2014,08,07,07,40,14.50
2014,08,07,07,41,14.60
2014,08,07,07,42,14.60
2014,08,07,07,43,14.70
2014,08,07,07,44,14.70
2014,08,07,07,45,14.70
2014,08,07,07,46,14.70
2014,08,07,07,47,14.70
2014,08,07,07,48,14.70
2014,08,07,07,49,14.70
2014,08,07,07,50,14.70
2014,08,07,07,51,14.80
2014,08,07,07,52,14.80
2014,08,07,07,53,14.80
2014,08,07,07,54,14.90
2014,08,07,07,55,14.90
2014,08,07,07,56,15.00
2014,08,07,07,57,15.10
2014,08,07,07,58,15.20
2014,08,07,07,59,15.30
2014,08,07,08,00,15.40
2014,08,07,08,01,15.40
2014,08,07,08,02,15.40
2014,08,07,08,03,15.50
2014,08,07,08,04,15.50
2014,08,07,08,05,15.60
2014,08,07,08,06,15.60
2014,08,07,08,07,15.60
2014,08,07,08,08,15.60
2014,08,07,08,09,15.50
2014,08,07,08,10,15.50
2014,08,07,08,11,15.50
2014,08,07,08,12,15.60
2014,08,07,08,13,15.60
2014,08,07,08,14,15.60
2014,08,07,08,15,15.60
2014,08,07,08,16,15.60
2014,08,07,08,17,15.60
2014,08,07,08,18,15.70
2014,08,07,08,19,15.70
2014,08,07,08,20,15.80
2014,08,07,08,21,15.90
2014,08,07,08,22,15.90
2014,08,07,08,23,15.90
2014,08,07,08,24,16.00
2014,08,07,08,25,16.10
2014,08,07,08,26,16.10
2014,08,07,08,27,16.20
2014,08,07,08,28,16.20
2014,08,07,08,29,16.20
2014,08,07,08,30,16.20
2014,08,07,08,31,16.20
2014,08,07,08,32,16.20
2014,08,07,08,33,16.20
2014,08,07,08,34,16.20
2014,08,07,08,35,16.20
2014,08,07,08,36,16.10
2014,08,07,08,37,16.10
2014,08,07,08,38,16.10
2014,08,07,08,39,16.10
2014,08,07,08,40,16.10
2014,08,07,08,41,16.10
2014,08,07,08,42,16.10
2014,08,07,08,43,16.10
2014,08,07,08,44,16.10
2014,08,07,08,45,16.20
2014,08,07,08,46,16.30
2014,08,07,08,47,16.40
2014,08,07,08,48,16.50
2014,08,07,08,49,16.50
2014,08,07,08,50,16.60
2014,08,07,08,51,16.50
2014,08,07,08,52,16.50
2014,08,07,08,53,16.40
2014,08,07,08,54,16.30
2014,08,07,08,55,16.30
2014,08,07,08,56,16.40
2014,08,07,08,57,16.50
2014,08,07,08,58,16.60
2014,08,07,08,59,16.70
2014,08,07,09,00,16.80
2014,08,07,09,01,16.90
2014,08,07,09,02,16.90
2014,08,07,09,03,17.00
2014,08,07,09,04,17.00
2014,08,07,09,05,17.10
2014,08,07,09,06,17.20
2014,08,07,09,07,17.20
2014,08,07,09,08,17.30
2014,08,07,09,09,17.30
2014,08,07,09,10,17.30
2014,08,07,09,11,17.30
2014,08,07,09,12,17.40
2014,08,07,09,13,17.40
2014,08,07,09,14,17.50
2014,08,07,09,15,17.60
2014,08,07,09,16,17.60
2014,08,07,09,17,17.60
2014,08,07,09,18,17.60
2014,08,07,09,19,17.70
2014,08,07,09,20,17.70
2014,08,07,09,21,17.70
2014,08,07,09,22,17.60
2014,08,07,09,23,17.60
2014,08,07,09,24,17.60
2014,08,07,09,25,17.60
2014,08,07,09,26,17.70
2014,08,07,09,27,17.80
2014,08,07,09,28,17.90
2014,08,07,09,29,17.90
2014,08,07,09,30,17.90
2014,08,07,09,31,18.00
2014,08,07,09,32,18.00
2014,08,07,09,33,17.90
2014,08,07,09,34,18.00
2014,08,07,09,35,18.10
2014,08,07,09,36,18.10
2014,08,07,09,37,18.20
2014,08,07,09,38,18.20
2014,08,07,09,39,18.20
2014,08,07,09,40,18.10
2014,08,07,09,41,18.00
2014,08,07,09,42,18.00
2014,08,07,09,43,18.00
2014,08,07,09,44,17.90
2014,08,07,09,45,17.90
2014,08,07,09,46,18.00
2014,08,07,09,47,18.10
2014,08,07,09,48,18.20
2014,08,07,09,49,18.20
2014,08,07,09,50,18.20
2014,08,07,09,51,18.30
2014,08,07,09,52,18.40
2014,08,07,09,53,18.50
2014,08,07,09,54,18.50
2014,08,07,09,55,18.40
2014,08,07,09,56,18.30
2014,08,07,09,57,18.30
2014,08,07,09,58,18.30
2014,08,07,09,59,18.30
2014,08,07,10,00,18.30
2014,08,07,10,01,18.30
2014,08,07,10,02,18.20
2014,08,07,10,03,18.20
2014,08,07,10,04,18.30
2014,08,07,10,05,18.30
2014,08,07,10,06,18.30
2014,08,07,10,07,18.30
2014,08,07,10,08,18.30
2014,08,07,10,09,18.30
2014,08,07,10,10,18.30
2014,08,07,10,11,18.40
2014,08,07,10,12,18.50
2014,08,07,10,13,18.60
2014,08,07,10,14,18.60
2014,08,07,10,15,18.50
2014,08,07,10,16,18.50
2014,08,07,10,17,18.30
2014,08,07,10,18,18.30
2014,08,07,10,19,18.30
2014,08,07,10,20,18.30
2014,08,07,10,21,18.30
2014,08,07,10,22,18.30
2014,08,07,10,23,18.30
2014,08,07,10,24,18.40
2014,08,07,10,25,18.50
2014,08,07,10,26,18.60
2014,08,07,10,27,18.70
2014,08,07,10,28,18.70
2014,08,07,10,29,18.80
2014,08,07,10,30,18.90
2014,08,07,10,31,19.10
2014,08,07,10,32,19.20
2014,08,07,10,33,19.20
2014,08,07,10,34,19.20
2014,08,07,10,35,19.20
2014,08,07,10,36,19.10
2014,08,07,10,37,19.00
2014,08,07,10,38,18.90
2014,08,07,10,39,18.90
2014,08,07,10,40,19.00
2014,08,07,10,41,19.00
2014,08,07,10,42,19.10
2014,08,07,10,43,19.20
2014,08,07,10,44,19.30
2014,08,07,10,45,19.50
2014,08,07,10,46,19.60
2014,08,07,10,47,19.70
2014,08,07,10,48,19.60
2014,08,07,10,49,19.60
2014,08,07,10,50,19.60
2014,08,07,10,51,19.70
2014,08,07,10,52,19.70
2014,08,07,10,53,19.80
2014,08,07,10,54,19.80
2014,08,07,10,55,19.80
2014,08,07,10,56,19.80
2014,08,07,10,57,19.70
2014,08,07,10,58,19.70
2014,08,07,10,59,19.70
2014,08,07,11,00,19.80
2014,08,07,11,01,19.80
2014,08,07,11,02,19.90
2014,08,07,11,03,20.00
2014,08,07,11,04,20.00
2014,08,07,11,05,19.90
2014,08,07,11,06,19.80
2014,08,07,11,07,19.60
2014,08,07,11,08,19.50
2014,08,07,11,09,19.50
2014,08,07,11,10,19.60
2014,08,07,11,11,19.60
2014,08,07,11,12,19.60
2014,08,07,11,13,19.60
2014,08,07,11,14,19.60
2014,08,07,11,15,19.50
2014,08,07,11,16,19.40
2014,08,07,11,17,19.30
2014,08,07,11,18,19.40
2014,08,07,11,19,19.40
2014,08,07,11,20,19.50
2014,08,07,11,21,19.70
2014,08,07,11,22,19.70
2014,08,07,11,23,19.70
2014,08,07,11,24,19.70
2014,08,07,11,25,19.70
2014,08,07,11,26,19.80
2014,08,07,11,27,19.90
2014,08,07,11,28,20.00
2014,08,07,11,29,20.10
2014,08,07,11,30,20.00
2014,08,07,11,31,19.90
2014,08,07,11,32,19.80
2014,08,07,11,33,19.80
2014,08,07,11,34,19.80
2014,08,07,11,35,19.80
2014,08,07,11,36,19.80
2014,08,07,11,37,19.70
2014,08,07,11,38,19.60
2014,08,07,11,39,19.50
2014,08,07,11,40,19.50
2014,08,07,11,41,19.50
2014,08,07,11,42,19.60
2014,08,07,11,43,19.70
2014,08,07,11,44,19.80
2014,08,07,11,45,19.90
2014,08,07,11,46,20.00
2014,08,07,11,47,20.10
2014,08,07,11,48,20.10
2014,08,07,11,49,20.10
2014,08,07,11,50,20.10
2014,08,07,11,51,20.00
2014,08,07,11,52,20.00
2014,08,07,11,53,19.90
2014,08,07,11,54,19.90
2014,08,07,11,55,19.90
2014,08,07,11,56,19.80
2014,08,07,11,57,19.80
2014,08,07,11,58,19.80
2014,08,07,11,59,19.80
2014,08,07,12,00,19.80
2014,08,07,12,01,19.80
2014,08,07,12,02,19.80
2014,08,07,12,03,19.90
2014,08,07,12,04,20.00
2014,08,07,12,05,20.20
2014,08,07,12,06,20.30
2014,08,07,12,07,20.50
2014,08,07,12,08,20.60
2014,08,07,12,09,20.60
2014,08,07,12,10,20.60
2014,08,07,12,11,20.70
2014,08,07,12,12,20.80
2014,08,07,12,13,21.00
2014,08,07,12,14,21.10
2014,08,07,12,15,21.10
2014,08,07,12,16,21.10
2014,08,07,12,17,21.10
2014,08,07,12,18,21.10
2014,08,07,12,19,21.10
2014,08,07,12,20,21.10
2014,08,07,12,21,21.20
2014,08,07,12,22,21.30
2014,08,07,12,23,21.30
2014,08,07,12,24,21.40
2014,08,07,12,25,21.60
2014,08,07,12,26,21.60
2014,08,07,12,27,21.60
2014,08,07,12,28,21.50
2014,08,07,12,29,21.50
2014,08,07,12,30,21.60
2014,08,07,12,31,21.70
2014,08,07,12,32,21.70
2014,08,07,12,33,21.60
2014,08,07,12,34,21.60
2014,08,07,12,35,21.60
2014,08,07,12,36,21.70
2014,08,07,12,37,21.80
2014,08,07,12,38,21.90
2014,08,07,12,39,22.00
2014,08,07,12,40,22.00
2014,08,07,12,41,22.10
2014,08,07,12,42,22.10
2014,08,07,12,43,22.20
2014,08,07,12,44,22.10
2014,08,07,12,45,22.10
2014,08,07,12,46,22.20
2014,08,07,12,47,22.30
2014,08,07,12,48,22.40
2014,08,07,12,49,22.50
2014,08,07,12,50,22.40
2014,08,07,12,51,22.30
2014,08,07,12,52,22.20
2014,08,07,12,53,21.90
2014,08,07,12,54,21.70
2014,08,07,12,55,21.40
2014,08,07,12,56,21.20
2014,08,07,12,57,21.00
2014,08,07,12,58,20.90
2014,08,07,12,59,20.80
2014,08,07,13,00,20.80
2014,08,07,13,01,20.70
2014,08,07,13,02,20.50
2014,08,07,13,03,20.40
2014,08,07,13,04,20.40
2014,08,07,13,05,20.30
2014,08,07,13,06,20.20
2014,08,07,13,07,20.20
2014,08,07,13,08,20.20
2014,08,07,13,09,20.20
2014,08,07,13,10,20.20
2014,08,07,13,11,20.30
2014,08,07,13,12,20.30
2014,08,07,13,13,20.40
2014,08,07,13,14,20.50
2014,08,07,13,15,20.50
2014,08,07,13,16,20.50
2014,08,07,13,17,20.40
2014,08,07,13,18,20.40
2014,08,07,13,19,20.30
2014,08,07,13,20,20.30
2014,08,07,13,21,20.30
2014,08,07,13,22,20.20
2014,08,07,13,23,20.20
2014,08,07,13,24,20.10
2014,08,07,13,25,20.10
2014,08,07,13,26,20.10
2014,08,07,13,27,20.20
2014,08,07,13,28,20.40
2014,08,07,13,29,20.50
2014,08,07,13,30,20.50
2014,08,07,13,31,20.50
2014,08,07,13,32,20.60
2014,08,07,13,33,20.60
2014,08,07,13,34,20.70
2014,08,07,13,35,20.80
2014,08,07,13,36,20.80
2014,08,07,13,37,20.90
2014,08,07,13,38,20.90
2014,08,07,13,39,21.00
2014,08,07,13,40,21.10
2014,08,07,13,41,21.20
2014,08,07,13,42,21.30
2014,08,07,13,43,21.20
2014,08,07,13,44,21.20
2014,08,07,13,45,21.20
2014,08,07,13,46,21.10
2014,08,07,13,47,21.20
2014,08,07,13,48,21.30
2014,08,07,13,49,21.30
2014,08,07,13,50,21.30
2014,08,07,13,51,21.30
2014,08,07,13,52,21.20
2014,08,07,13,53,21.20
2014,08,07,13,54,21.20
2014,08,07,13,55,21.30
2014,08,07,13,56,21.50
2014,08,07,13,57,21.60
2014,08,07,13,58,21.60
2014,08,07,13,59,21.70
2014,08,07,14,00,21.80
2014,08,07,14,01,21.80
2014,08,07,14,02,21.80
2014,08,07,14,03,21.80
2014,08,07,14,04,21.70
2014,08,07,14,05,21.70
2014,08,07,14,06,21.60
2014,08,07,14,07,21.60
2014,08,07,14,08,21.70
2014,08,07,14,09,21.80
2014,08,07,14,10,21.80
2014,08,07,14,11,21.90
2014,08,07,14,12,21.90
2014,08,07,14,13,21.90
2014,08,07,14,14,22.00
2014,08,07,14,15,22.20
2014,08,07,14,16,22.30
2014,08,07,14,17,22.40
2014,08,07,14,18,22.60
2014,08,07,14,19,22.60
2014,08,07,14,20,22.70
2014,08,07,14,21,22.80
2014,08,07,14,22,22.90
2014,08,07,14,23,23.00
2014,08,07,14,24,23.10
2014,08,07,14,25,23.10
2014,08,07,14,26,23.20
2014,08,07,14,27,23.20
2014,08,07,14,28,23.20
2014,08,07,14,29,23.30
2014,08,07,14,30,23.30
2014,08,07,14,31,23.30
2014,08,07,14,32,23.30
2014,08,07,14,33,23.30
2014,08,07,14,34,23.30
2014,08,07,14,35,23.40
2014,08,07,14,36,23.40
2014,08,07,14,37,23.50
2014,08,07,14,38,23.50
2014,08,07,14,39,23.60
2014,08,07,14,40,23.50
2014,08,07,14,41,23.50
2014,08,07,14,42,23.40
2014,08,07,14,43,23.30
2014,08,07,14,44,23.30
2014,08,07,14,45,23.10
2014,08,07,14,46,23.10
2014,08,07,14,47,23.00
2014,08,07,14,48,23.00
2014,08,07,14,49,23.10
2014,08,07,14,50,23.10
2014,08,07,14,51,23.00
2014,08,07,14,52,23.00
2014,08,07,14,53,23.00
2014,08,07,14,54,22.90
2014,08,07,14,55,22.90
2014,08,07,14,56,22.80
2014,08,07,14,57,22.80
2014,08,07,14,58,22.80
2014,08,07,14,59,22.80
2014,08,07,15,00,22.80
2014,08,07,15,01,22.80
2014,08,07,15,02,22.90
2014,08,07,15,03,22.90
2014,08,07,15,04,22.90
2014,08,07,15,05,23.00
2014,08,07,15,06,23.00
2014,08,07,15,07,23.10
2014,08,07,15,08,23.10
2014,08,07,15,09,23.10
2014,08,07,15,10,23.10
2014,08,07,15,11,23.10
2014,08,07,15,12,23.20
2014,08,07,15,13,23.20
2014,08,07,15,14,23.20
2014,08,07,15,15,23.20
2014,08,07,15,16,23.20
2014,08,07,15,17,23.30
2014,08,07,15,18,23.40
2014,08,07,15,19,23.40
2014,08,07,15,20,23.40
2014,08,07,15,21,23.40
2014,08,07,15,22,23.40
2014,08,07,15,23,23.50
2014,08,07,15,24,23.50
2014,08,07,15,25,23.50
2014,08,07,15,26,23.40
2014,08,07,15,27,23.40
2014,08,07,15,28,23.40
2014,08,07,15,29,23.50
2014,08,07,15,30,23.50
2014,08,07,15,31,23.60
2014,08,07,15,32,23.70
2014,08,07,15,33,23.80
2014,08,07,15,34,23.90
2014,08,07,15,35,24.00
2014,08,07,15,36,24.00
2014,08,07,15,37,24.00
2014,08,07,15,38,23.90
2014,08,07,15,39,23.80
2014,08,07,15,40,23.90
2014,08,07,15,41,23.90
2014,08,07,15,42,24.00
2014,08,07,15,43,24.10
2014,08,07,15,44,24.10
2014,08,07,15,45,24.20
2014,08,07,15,46,24.20
2014,08,07,15,47,24.20
2014,08,07,15,48,24.10
2014,08,07,15,49,24.10
2014,08,07,15,50,24.10
2014,08,07,15,51,24.10
2014,08,07,15,52,24.10
2014,08,07,15,53,24.10
2014,08,07,15,54,24.00
2014,08,07,15,55,24.00
2014,08,07,15,56,24.00
2014,08,07,15,57,24.00
2014,08,07,15,58,24.10
2014,08,07,15,59,24.00
2014,08,07,16,00,23.90
2014,08,07,16,01,23.80
2014,08,07,16,02,23.80
2014,08,07,16,03,23.80
2014,08,07,16,04,23.80
2014,08,07,16,05,23.80
2014,08,07,16,06,23.90
2014,08,07,16,07,23.90
2014,08,07,16,08,24.10
2014,08,07,16,09,24.10
2014,08,07,16,10,24.20
2014,08,07,16,11,24.20
2014,08,07,16,12,24.20
2014,08,07,16,13,24.20
2014,08,07,16,14,24.20
2014,08,07,16,15,24.20
2014,08,07,16,16,24.20
2014,08,07,16,17,24.20
2014,08,07,16,18,24.20
2014,08,07,16,19,24.20
2014,08,07,16,20,24.10
2014,08,07,16,21,24.10
2014,08,07,16,22,24.20
2014,08,07,16,23,24.20
2014,08,07,16,24,24.20
2014,08,07,16,25,24.20
2014,08,07,16,26,24.20
2014,08,07,16,27,24.20
2014,08,07,16,28,24.20
2014,08,07,16,29,24.20
2014,08,07,16,30,24.30
2014,08,07,16,31,24.40
2014,08,07,16,32,24.50
2014,08,07,16,33,24.50
2014,08,07,16,34,24.60
2014,08,07,16,35,24.60
2014,08,07,16,36,24.70
2014,08,07,16,37,24.80
2014,08,07,16,38,24.90
2014,08,07,16,39,25.00
2014,08,07,16,40,25.10
2014,08,07,16,41,25.20
2014,08,07,16,42,25.20
2014,08,07,16,43,25.20
2014,08,07,16,44,25.10
2014,08,07,16,45,25.00
2014,08,07,16,46,24.90
2014,08,07,16,47,24.70
2014,08,07,16,48,24.60
2014,08,07,16,49,24.50
2014,08,07,16,50,24.40
2014,08,07,16,51,24.40
2014,08,07,16,52,24.40
2014,08,07,16,53,24.40
2014,08,07,16,54,24.30
2014,08,07,16,55,24.30
2014,08,07,16,56,24.30
2014,08,07,16,57,24.30
2014,08,07,16,58,24.30
2014,08,07,16,59,24.30
2014,08,07,17,00,24.30
2014,08,07,17,01,24.20
2014,08,07,17,02,24.30
2014,08,07,17,03,24.30
2014,08,07,17,04,24.40
2014,08,07,17,05,24.50
2014,08,07,17,06,24.50
2014,08,07,17,07,24.60
2014,08,07,17,08,24.70
2014,08,07,17,09,24.80
2014,08,07,17,10,24.90
2014,08,07,17,11,25.00
2014,08,07,17,12,25.00
2014,08,07,17,13,25.10
2014,08,07,17,14,25.10
2014,08,07,17,15,25.10
2014,08,07,17,16,25.20
2014,08,07,17,17,25.30
2014,08,07,17,18,25.40
2014,08,07,17,19,25.40